Location: Elstree
(51.6403°N, 0.2969°W)
Time: 16:33:39
(UTC+00:00)

SJ 16-02 - Pass Details

Date: 18 June 2021
Orbit: 606 x 616 km, 75.0° (Epoch: 29 July)

Event Time Altitude Azimuth Distance (km) Brightness Sun altitude
Rises 22:38:16 0° 344° (NNW) 2,880 6.9 -12.7°
Reaches altitude 10° 22:40:57 10° 359° (N) 1,970 5.2 -12.8°
Maximum altitude 22:44:24 22° 51° (NE) 1,338 3.3 -13.0°
Drops below altitude 10° 22:47:50 10° 103° (ESE) 1,959 3.6 -13.2°
Enters shadow 22:48:42 - 110° (ESE) 2,235 3.9 -13.2°
